Mullan Pass, ID

10:55 AM PST on January 22, 2018 (GMT -0800)
Mullan Pass

Weather History for KMLP - June, 2013

Change the Weather History Date:

Monday, June 17, 2013

  Actual Average (K3TH) Record (K3TH)
Temperature  
Mean Temperature 62 °F -  
Max Temperature 71 °F 70 °F 84 °F (1999)
Min Temperature 55 °F 51 °F 46 °F (1998)
Degree Days  
Heating Degree Days 3    
Growing Degree Days 12 (Base 50)    
Moisture  
Dew Point 40 °F    
Average Humidity 45    
Maximum Humidity 56    
Minimum Humidity 36    
Precipitation  
Precipitation 0.00 in - - ()
Sea Level Pressure  
Sea Level Pressure 29.82 in    
Wind  
Wind Speed 5 mph (SE)    
Max Wind Speed 9 mph    
Max Gust Speed 16 mph    
Visibility 10 miles    
Events      
Averages and records for this station are not official NWS values.
T = Trace of Precipitation, MM = Missing Value Source: NWS Daily Summary

Daily Weather History Graph

Daily Weather History Graph

Search for Another Location

Airport or City:

Trip Planner

Search our weather history database for the weather conditions in past years. The results will help you decide how hot, cold, wet, or windy it might be!

Date:

Astronomy

Jun. 17, 2013 Rise Set
Actual Time 4:45 AM PDT 8:42 PM PDT
Civil Twilight 4:04 AM PDT 9:22 PM PDT
Nautical Twilight 3:08 AM PDT 10:18 PM PDT
Astronomical Twilight 1:40 AM PDT 11:47 PM PDT
Moon 2:05 PM PDT (6/17) 12:46 AM PDT (6/17)
Length of Visible Light 17h 18m
Length of Day
15h 57m
First Quarter, 61% of the Moon is Illuminated
Jun 17
First Quarter
Jun 23
Full
Jun 29
Last Quarter
Jul 8
New
Jul 15
First Quarter

Hourly Weather History & Observations

Time (PDT) Temp. Dew Point Humidity Pressure Visibility Wind Dir Wind Speed Gust Speed Precip Events Conditions
12:53 AM 59.0 °F 33.1 °F 38% 29.86 in 10.0 mi SSE 5.8 mph - N/A   Mostly Cloudy
1:53 AM 59.0 °F 32.0 °F 36% 29.86 in 10.0 mi SE 5.8 mph - N/A   Overcast
2:53 AM 57.9 °F 33.1 °F 39% 29.84 in 10.0 mi SE 9.2 mph 16.1 mph N/A   Scattered Clouds
3:53 AM 57.0 °F 34.0 °F 42% 29.83 in 10.0 mi SE 8.1 mph - N/A   Mostly Cloudy
4:53 AM 55.9 °F 33.1 °F 42% 29.85 in 10.0 mi SE 9.2 mph - N/A   Partly Cloudy
5:53 AM 55.0 °F 35.1 °F 47% 29.85 in 10.0 mi SE 4.6 mph - N/A   Partly Cloudy
6:53 AM 55.9 °F 36.0 °F 47% 29.86 in 10.0 mi Variable 3.5 mph - N/A   Clear
7:53 AM 57.9 °F 37.9 °F 47% 29.86 in 10.0 mi Variable 3.5 mph - N/A   Clear
8:53 AM 59.0 °F 39.9 °F 49% 29.86 in 10.0 mi Variable 4.6 mph - N/A   Clear
9:53 AM 62.1 °F 39.9 °F 44% 29.86 in 10.0 mi Variable 3.5 mph - N/A   Clear
10:53 AM 62.1 °F 39.0 °F 43% 29.86 in 10.0 mi Variable 3.5 mph - N/A   Clear
11:53 AM 66.0 °F 43.0 °F 43% 29.85 in 10.0 mi Variable 3.5 mph - N/A   Clear
12:53 PM 66.9 °F 44.1 °F 44% 29.84 in 10.0 mi Variable 3.5 mph - N/A   Clear
1:53 PM 69.1 °F 46.0 °F 44% 29.83 in 10.0 mi Variable 3.5 mph - N/A   Scattered Clouds
2:53 PM 68.0 °F 46.0 °F 45% 29.82 in 10.0 mi Variable 3.5 mph - N/A   Clear
3:53 PM 69.1 °F 44.1 °F 40% 29.81 in 10.0 mi Calm Calm - N/A   Partly Cloudy
4:53 PM 69.1 °F 44.1 °F 40% 29.79 in 10.0 mi Variable 6.9 mph - N/A   Clear
5:53 PM 66.0 °F 44.1 °F 45% 29.79 in 10.0 mi Variable 6.9 mph - N/A   Clear
6:53 PM 64.9 °F 42.1 °F 43% 29.79 in 10.0 mi Calm Calm - N/A   Clear
7:53 PM 62.1 °F 46.0 °F 56% 29.78 in 10.0 mi NNW 3.5 mph - N/A   Clear
8:53 PM 59.0 °F 43.0 °F 55% 29.78 in 10.0 mi North 4.6 mph - N/A   Clear
9:53 PM 59.0 °F 39.9 °F 49% 29.76 in 10.0 mi Calm Calm - N/A   Clear
10:53 PM 57.9 °F 41.0 °F 53% 29.75 in 10.0 mi Calm Calm - N/A   Clear
11:53 PM 59.0 °F 39.0 °F 48% 29.72 in 10.0 mi Calm Calm - N/A   Clear